CAPE
0 378 514 1063 499 47 12 44 44 69 31 96 157 183 252 226 88 69 424 423 460 831 1376 1417 1185 1386 1371 1590 1528 1320 1599 1666 1538 1504 1173 649 292 129 190 331 576 685 875 1017 1037 1000 1084 992 1041
0 679 1345 1037 297 48 0 7 167 53 6 76 111 154 118 152 227 383 247 421 399 610 1335 1165 1252 1436 1261 1423 1299 1401 1611 1383 1299 1157 1098 735 298 152 414 350 527 519 657 878 862 857 682 792 1083
13 834 729 452 84 47 1 10 101 145 39 38 96 203 313 158 169 210 81 368 264 621 1096 1420 1579 1582 1903 1803 1589 1368 1465 1450 1110 1076 896 735 97 482 534 505 378 693 550 778 929 1054 1043 1024 1089
784 728 129 29 51 81 0 28 203 176 39 35 33 306 379 449 231 95 137 179 637 762 1019 1508 1346 1430 1553 1529 1563 1360 1423 1317 1220 1019 816 936 208 571 754 770 691 625 828 1100 1227 1028 1058 1203 1237
740 469 184 35 41 116 4 88 167 132 52 104 174 116 241 256 56 34 121 239 552 883 1070 1580 1361 1355 1622 1487 1403 1581 1393 1067 1159 1088 856 634 97 584 957 1078 1204 980 880 773 687 726 979 992 968
493 142 46 33 58 342 299 303 129 96 86 102 155 228 222 165 188 220 273 424 891 927 1242 1651 1782 1908 1666 1581 1454 1348 1364 1198 1251 799 774 502 425 620 1022 680 672 669 591 443 434 607 769 870 1250
189 102 32 44 188 386 239 173 40 85 80 57 242 175 141 197 224 299 316 595 816 810 984 1385 1463 1522 1446 1593 1163 1293 1278 911 788 770 478 244 268 138 438 895 1180 851 711 641 536 568 661 1269 930
88 77 22 38 247 248 279 189 301 333 22 105 177 155 123 90 42 160 225 474 492 678 815 816 1187 1326 1089 1102 1302 1170 997 819 820 608 450 22 0 40 166 983 1124 884 825 472 691 511 612 1013 687
145 104 17 73 207 275 418 214 154 425 163 473 180 321 222 99 100 141 62 159 172 353 654 886 770 862 857 995 1266 1235 933 659 808 493 315 12 4 41 286 751 1150 953 1136 958 816 887 786 737 527
170 40 12 68 224 214 483 301 302 121 98 437 461 336 240 134 169 140 298 227 306 337 289 561 732 802 969 1134 1171 970 903 616 658 172 472 199 83 0 42 787 909 885 815 770 302 473 1208 1124 620
57 10 0 293 193 400 293 228 216 203 64 37 349 234 244 175 196 139 134 206 191 213 299 388 498 659 622 895 1044 679 852 418 600 285 27 127 326 291 128 379 512 515 789 470 528 363 407 463 568
108 20 90 383 298 231 336 243 145 59 128 7 7 388 276 291 236 141 158 286 316 348 299 525 565 575 722 799 740 705 823 513 424 191 36 60 247 513 359 237 160 116 312 4 406 613 647 542 335
128 440 406 374 535 345 303 390 214 3 5 4 2 97 342 272 242 183 197 214 201 178 157 478 514 409 476 489 592 521 667 448 314 73 53 107 112 236 247 142 207 10 3 390 624 608 21 47 290
52 276 231 67 330 456 444 352 167 4 4 1 25 145 230 48 153 68 141 190 158 199 228 469 501 386 310 346 418 411 589 348 87 82 46 61 785 476 62 8 122 86 146 262 532 406 47 0 0
132 215 8 6 17 529 579 417 395 33 0 0 35 44 69 28 1 44 122 161 129 149 214 229 613 498 673 362 230 315 118 53 0 33 16 37 205 199 26 2 48 82 204 775 563 357 5 0 26
1 120 2 155 69 643 481 151 369 395 142 73 97 52 31 33 0 32 105 36 111 140 90 376 387 229 257 53 108 143 159 75 8 12 191 81 630 396 168 137 269 233 456 762 750 14 6 109 54
15 66 27 425 442 714 621 344 554 591 423 187 95 39 21 6 0 0 0 27 24 100 179 190 124 119 159 0 3 5 27 44 8 130 21 685 323 167 37 2 53 34 387 75 206 413 273 570 379
0 15 226 130 490 322 501 570 688 622 484 111 97 27 46 42 18 5 0 1 0 83 191 68 42 0 0 0 0 18 62 96 73 107 479 239 322 0 43 59 5 0 267 714 502 590 548 68 21
0 2 0 79 778 606 524 605 685 772 339 89 97 101 22 43 61 26 5 65 8 175 144 207 93 0 0 1 0 15 14 52 0 0 7 104 48 23 82 1 0 0 29 214 544 1342 197 153 372
0 0 0 1 72 324 27 69 714 926 630 382 323 134 88 178 171 100 4 110 57 140 73 245 129 2 0 0 0 2 5 48 101 69 1 0 60 391 30 0 0 0 47 200 672 1221 917 534 51
0 0 0 0 16 2 0 74 446 430 43 0 216 368 318 209 301 151 36 76 94 154 211 208 79 11 0 0 0 9 72 85 30 80 293 58 985 158 0 0 0 0 1 87 118 1445 1183 131 0
0 0 0 0 0 0 0 0 373 142 13 55 498 650 475 3 337 132 187 38 123 142 353 237 98 80 0 0 0 16 42 9 28 66 342 784 570 980 107 0 153 146 27 11 692 1339 1422 187 0
0 0 0 0 0 0 0 0 130 92 61 7 357 362 421 378 271 270 371 167 321 264 348 312 235 274 502 251 1 78 0 0 0 11 244 767 584 1284 967 135 284 972 836 1039 1640 1537 1403 539 353
0 0 0 0 0 0 0 0 64 166 176 1 21 0 276 304 389 498 409 162 615 383 427 620 355 93 571 308 257 347 36 9 202 448 179 654 1066 461 480 1068 1334 1272 1388 1630 1450 2028 1467 1183 1170
0 0 0 0 0 0 0 3 17 156 102 0 0 22 12 244 193 601 533 368 760 533 549 682 713 356 223 655 385 428 806 686 492 316 506 564 699 760 306 777 1231 1288 1098 930 1654 1786 1512 1183 1507
0 0 0 0 0 0 0 2 27 41 73 88 14 219 58 155 317 395 633 485 839 708 628 730 791 626 615 751 472 292 109 452 445 185 250 463 858 797 877 513 1332 1430 1488 1160 841 1154 900 1299 1311
0 0 0 0 0 0 0 26 56 28 44 178 262 387 630 473 409 477 485 363 600 908 829 786 809 908 856 984 920 647 471 548 784 0 49 848 882 928 1529 1219 1155 993 848 1178 1428 1311 873 1170 1160
0 0 0 0 0 0 0 53 110 116 104 108 243 223 8 664 460 473 482 389 663 995 989 1017 914 879 869 1011 1086 1208 759 784 690 1159 1012 565 252 538 852 808 803 824 1226 1289 882 946 885 966 1136
0 0 0 0 0 0 0 4 131 71 62 35 157 117 34 177 477 378 536 410 625 970 1097 1115 1199 1041 949 1041 1021 951 933 949 638 847 836 445 18 994 1024 783 474 1059 1303 1252 1652 1107 813 1103 1212
0 0 0 0 0 0 0 0 144 50 18 8 131 70 3 67 53 383 685 532 730 920 1185 1185 1295 1201 1150 1010 1217 1038 1036 968 972 1006 802 772 766 1216 985 913 747 935 845 1280 1312 1327 1229 1043 1131
CIN
-0 -217 -193 -96 -15 -23 -41 -16 -190 -20 -38 -55 -28 -34 -52 -59 -75 -60 -38 -96 -98 -76 -12 -3 -11 -1 -1 -0 -0 -5 -0 -0 -0 -0 -2 -26 -47 -47 -59 -31 -14 -14 -8 -5 -2 -3 -3 -6 -12
-0 -139 -62 -11 -10 -14 -10 -28 -39 -55 -15 -71 -51 -50 -72 -80 -127 -87 -94 -56 -112 -106 -12 -27 -11 -3 -1 -1 -2 -1 -0 -0 -0 -3 -3 -16 -28 -37 -18 -21 -8 -11 -7 -5 -3 -3 -8 -7 -4
-225 -115 -43 -20 -30 -17 -8 -33 -111 -59 -19 -4 -34 -39 -50 -77 -95 -75 -144 -79 -125 -84 -23 -4 -0 -1 -0 -0 -1 -2 -0 -0 -8 -5 -9 -6 -46 -17 -5 -4 -16 -3 -6 -3 -2 -1 -0 -0 -0
-116 -58 -100 -32 -15 -28 -0 -94 -63 -33 -23 -104 -29 -52 -17 -2 -83 -122 -131 -92 -71 -67 -40 -6 -9 -0 -0 -0 -0 -2 -1 -1 -0 -0 -8 -1 -19 -9 -2 -0 -1 -3 -1 -1 -0 -0 -0 -0 -1
-82 -61 -26 -81 -19 -5 -12 -59 -27 -49 -18 -40 -43 -39 -44 -37 -85 -125 -87 -57 -59 -55 -41 -9 -13 -0 -0 -0 -0 -0 -0 -2 -0 -0 -2 -2 -27 -1 -6 -0 -0 -0 -1 -1 -5 -3 -0 -0 -7
-20 -95 -59 -49 -25 -5 -12 -14 -31 -29 -14 -67 -68 -56 -25 -37 -29 -30 -18 -27 -27 -67 -36 -5 -0 -0 -0 -0 -0 -0 -1 -0 -0 -10 -0 -3 -9 -7 -1 -0 -2 -2 -1 -9 -18 -17 -10 -7 -5
-53 -27 -32 -28 -7 -3 -11 -20 -30 -26 -16 -23 -50 -55 -48 -24 -24 -21 -25 -21 -32 -42 -60 -21 -5 -0 -0 -0 -11 -0 -0 -6 -22 -19 -20 -30 -29 -36 -29 -0 -0 -0 -0 -5 -17 -27 -24 -5 -31
-29 -56 -45 -37 -7 -11 -21 -14 -38 -13 -20 -86 -39 -108 -89 -49 -88 -32 -44 -28 -36 -19 -45 -41 -34 -20 -31 -18 -0 -0 -0 -9 -22 -23 -24 -128 -0 -64 -67 -0 -0 -0 -1 -25 -27 -42 -31 -28 -61
-69 -39 -33 -25 -6 -13 -15 -18 -22 -28 -21 -11 -46 -96 -77 -69 -70 -31 -62 -36 -30 -23 -23 -33 -35 -53 -46 -20 -3 -1 -11 -35 -31 -36 -33 -124 -32 -63 -33 -9 -1 -2 -0 -6 -16 -19 -32 -46 -72
-30 -47 -33 -46 -11 -14 -13 -9 -8 -17 -12 -17 -37 -91 -51 -44 -26 -44 -22 -20 -29 -30 -29 -33 -28 -27 -34 -16 -1 -17 -26 -49 -25 -60 -23 -74 -94 -0 -95 -2 -4 -7 -6 -10 -39 -37 -6 -32 -63
-63 -41 -0 -25 -17 -7 -14 -11 -17 -27 -49 -73 -8 -44 -54 -62 -40 -50 -80 -43 -37 -23 -22 -46 -30 -19 -35 -31 -19 -48 -34 -64 -50 -68 -85 -78 -61 -58 -114 -30 -17 -24 -20 -35 -40 -50 -68 -68 -28
-36 -66 -58 -36 -14 -10 -5 -21 -34 -48 -45 -90 -82 -16 -54 -51 -42 -49 -42 -36 -25 -24 -24 -23 -21 -15 -35 -26 -26 -34 -34 -75 -63 -53 -81 -93 -52 -30 -58 -52 -109 -62 -63 -43 -94 -35 -48 -88 -103
-31 -47 -73 -66 -8 -32 -18 -26 -44 -90 -131 -139 -38 -101 -41 -41 -20 -50 -39 -25 -47 -30 -28 -24 -17 -31 -29 -44 -21 -36 -53 -61 -65 -87 -89 -102 -70 -51 -34 -66 -80 -24 -10 -96 -63 -42 -110 -112 -108
-29 -62 -83 -75 -48 -12 -16 -31 -52 -55 -130 -22 -50 -46 -29 -36 -30 -50 -119 -50 -112 -47 -34 -31 -32 -37 -50 -38 -17 -23 -29 -53 -87 -79 -89 -96 -23 -23 -64 -95 -96 -121 -143 -96 -82 -60 -127 -0 -0
-18 -67 -84 -110 -122 -50 -11 -32 -30 -80 -0 -0 -57 -9 -15 -26 -3 -66 -56 -71 -67 -50 -48 -50 -25 -33 -9 -16 -30 -36 -50 -86 -8 -86 -130 -84 -61 -43 -138 -34 -111 -119 -105 -39 -49 -116 -149 -0 -119
-10 -101 -13 -115 -132 -54 -29 -37 -32 -52 -70 -41 -45 -9 -11 -22 -2 -41 -127 -79 -124 -76 -73 -42 -31 -48 -33 -55 -30 -22 -39 -46 -50 -53 -42 -66 -21 -44 -57 -66 -68 -88 -69 -24 -37 -18 -140 -141 -141
-15 -20 -75 -54 -70 -33 -50 -39 -46 -76 -51 -31 -14 -18 -33 -42 -0 -0 -0 -89 -135 -105 -76 -71 -70 -54 -33 -0 -79 -69 -42 -28 -51 -23 -76 -19 -57 -92 -138 -96 -152 -191 -74 -88 -95 -77 -118 -80 -90
-0 -7 -22 -58 -29 -60 -45 -30 -49 -79 -75 -80 -23 -51 -80 -72 -30 -51 -0 -6 -0 -115 -73 -94 -99 -0 -0 -3 -0 -26 -52 -19 -14 -19 -21 -43 -75 -0 -167 -155 -104 -0 -89 -50 -42 -54 -76 -117 -33
-0 -2 -0 -34 -31 -19 -19 -20 -41 -70 -49 -112 -82 -49 -82 -15 -26 -42 -60 -149 -174 -86 -110 -100 -86 -0 -0 -125 -0 -50 -44 -21 -0 -0 -49 -48 -119 -207 -136 -63 -0 -0 -153 -105 -75 -23 -66 -95 -80
-0 -0 -0 -2 -22 -23 -31 -21 -48 -84 -154 -132 -59 -91 -65 -15 -21 -43 -20 -81 -155 -136 -179 -122 -125 -13 -0 -0 -0 -13 -44 -23 -29 -37 -29 -0 -68 -111 -150 -0 -0 -0 -157 -105 -58 -18 -19 -75 -139
-0 -0 -0 -0 -5 -9 -0 -14 -76 -209 -51 -0 -177 -59 -42 -12 -22 -27 -48 -98 -144 -134 -148 -141 -178 -58 -0 -0 -0 -74 -44 -37 -31 -31 -28 -49 -24 -131 -0 -0 -0 -0 -10 -127 -103 -21 -23 -77 -0
-0 -0 -0 -1 -0 -0 -0 -0 -75 -211 -199 -250 -96 -49 -46 -22 -33 -47 -46 -78 -122 -149 -117 -124 -145 -136 -0 -0 -0 -92 -50 -55 -59 -57 -47 -25 -13 -36 -126 -0 -104 -133 -127 -167 -48 -24 -11 -112 -0
-0 -0 -0 -0 -0 -0 -0 -0 -79 -209 -92 -278 -165 -166 -81 -46 -57 -56 -51 -84 -114 -134 -128 -122 -104 -71 -46 -55 -8 -78 -0 -0 -0 -93 -54 -29 -26 -21 -33 -128 -107 -56 -63 -52 -16 -20 -22 -62 -102
-0 -0 -0 -0 -0 -0 -0 -0 -50 -109 -65 -136 -117 -15 -200 -166 -71 -77 -67 -82 -94 -127 -124 -110 -116 -135 -47 -64 -53 -60 -87 -24 -50 -33 -42 -25 -20 -30 -25 -18 -17 -20 -16 -21 -21 -20 -43 -46 -19
-0 -0 -0 -0 -0 -0 -0 -32 -71 -111 -173 -0 -10 -216 -279 -121 -69 -82 -57 -50 -77 -105 -109 -113 -101 -99 -99 -45 -58 -49 -26 -20 -35 -39 -37 -30 -24 -34 -37 -28 -32 -31 -30 -29 -18 -17 -29 -42 -30
-0 -0 -0 -0 -0 -0 -5 -30 -35 -68 -46 -144 -204 -168 -295 -205 -76 -107 -75 -86 -71 -101 -131 -114 -110 -98 -87 -66 -73 -69 -87 -36 -49 -51 -51 -35 -13 -15 -27 -28 -26 -15 -20 -26 -38 -35 -31 -19 -25
-0 -0 -0 -0 -0 -0 -0 -43 -6 -43 -41 -15 -64 -132 -86 -56 -74 -96 -88 -87 -72 -106 -112 -133 -124 -100 -85 -62 -56 -63 -79 -47 -39 -5 -70 -37 -21 -20 -28 -42 -16 -13 -17 -15 -14 -25 -28 -11 -13
-0 -0 -0 -0 -0 -0 -0 -4 -19 -29 -24 -88 -89 -100 -88 -31 -90 -124 -100 -84 -94 -88 -112 -130 -128 -107 -95 -69 -53 -34 -71 -62 -58 -39 -41 -46 -48 -46 -32 -26 -24 -20 -9 -6 -12 -28 -32 -17 -12
-0 -0 -0 -0 -0 -0 -0 -4 -32 -23 -32 -133 -129 -228 -292 -162 -95 -116 -103 -109 -96 -81 -113 -132 -126 -118 -103 -81 -58 -56 -49 -50 -66 -36 -39 -54 -56 -29 -30 -36 -53 -15 -14 -6 -6 -14 -21 -16 -15
-0 -0 -0 -0 -0 -0 -0 -0 -50 -68 -141 -127 -188 -163 -9 -94 -229 -84 -109 -111 -101 -90 -110 -107 -114 -116 -107 -100 -82 -83 -68 -53 -51 -45 -39 -35 -40 -27 -21 -24 -31 -25 -22 -14 -11 -15 -20 -18 -13
Wind_Speed
15 15 13 12 16 18 18 14 11 11 22 25 24 23 22 16 17 16 14 20 21 22 20 20 23 21 22 21 7 26 23 22 21 21 22 22 23 23 21 20 20 20 20 19 18 18 19 16 14
15 14 13 10 17 21 15 12 13 9 22 24 26 24 23 24 20 20 16 21 21 20 17 22 21 19 19 20 23 23 19 19 21 22 21 22 21 19 19 18 19 18 17 17 17 17 17 15 15
12 13 16 17 18 20 17 16 13 12 18 20 24 23 21 21 22 19 21 19 18 18 16 17 17 18 15 14 15 17 16 17 19 21 21 20 19 18 18 18 19 19 17 17 17 17 17 16 17
11 13 19 19 21 15 17 16 14 18 17 19 20 24 23 19 17 18 20 20 17 15 15 15 13 12 13 11 13 14 16 17 18 19 20 19 19 19 17 17 19 19 19 20 19 18 18 17 17
15 19 20 22 21 22 17 15 14 17 19 18 20 20 21 20 21 23 23 21 18 16 15 14 13 12 10 11 13 11 14 16 17 18 17 16 17 14 15 15 18 20 19 19 19 19 19 18 18
16 20 24 24 25 21 19 17 16 16 17 16 20 21 21 22 21 20 20 19 18 16 14 12 11 10 10 11 12 11 14 13 16 17 16 16 17 14 11 14 20 19 19 19 20 20 19 19 20
21 22 24 23 21 20 18 15 14 16 19 16 15 17 17 19 19 19 18 17 17 15 14 11 10 8 8 8 9 12 12 11 16 16 17 18 16 20 16 20 17 17 17 19 20 21 21 21 21
16 18 25 24 20 21 17 13 13 15 18 16 14 14 13 17 19 17 15 14 15 16 15 12 12 8 8 9 8 10 8 12 17 16 18 17 20 16 16 20 16 17 17 20 20 20 21 21 20
15 21 26 22 23 20 17 13 12 14 19 20 15 15 16 16 17 18 17 16 17 16 15 14 13 11 10 8 7 8 10 14 16 17 15 15 9 15 15 16 17 18 19 20 20 20 20 20 19
15 22 24 21 24 20 13 13 13 14 16 20 16 18 18 17 15 14 15 14 14 13 14 14 11 11 9 7 7 6 9 13 15 15 13 4 9 16 16 15 17 18 18 19 19 19 20 20 19
20 12 7 21 22 19 15 15 15 14 13 16 14 16 17 18 18 17 17 15 15 15 12 11 8 12 10 7 8 7 12 14 15 14 13 14 11 16 16 16 18 17 17 18 18 18 19 18 16
16 7 9 21 20 19 16 14 15 15 9 10 18 14 15 17 17 16 17 16 15 14 11 10 10 12 10 6 10 10 15 12 12 9 9 14 11 12 14 17 18 16 17 17 16 16 17 16 18
19 19 20 10 12 19 17 15 15 15 13 16 15 17 14 16 17 17 17 15 15 15 12 12 12 11 11 16 13 17 16 15 15 7 13 13 13 14 15 17 21 17 18 17 16 12 16 18 20
19 18 15 17 15 17 16 14 14 10 15 15 12 15 13 13 17 16 17 17 17 14 14 10 10 11 14 10 15 17 11 13 15 5 5 9 16 14 14 10 23 19 19 18 10 14 18 22 22
14 20 28 25 19 16 14 13 11 13 15 14 11 12 11 13 15 17 19 16 15 14 14 13 10 10 11 10 15 13 24 16 23 18 19 4 16 12 14 19 20 19 18 18 20 18 16 17 16
19 19 25 11 14 12 12 13 9 12 12 13 17 10 12 16 13 17 18 17 16 14 15 12 12 11 11 8 4 22 25 28 27 23 16 7 14 9 13 17 15 17 18 17 20 23 13 16 19
12 22 16 15 8 12 8 17 6 9 10 11 9 9 10 8 10 13 15 15 15 15 13 12 13 13 12 10 3 18 27 25 24 11 6 21 5 10 9 17 15 13 15 9 18 18 21 21 21
3 26 11 14 8 7 5 4 11 8 8 8 10 7 11 10 13 13 15 16 14 13 12 13 13 14 13 13 2 18 16 12 7 3 5 4 4 7 13 16 12 12 16 16 18 21 22 20 20
25 11 29 7 8 8 8 5 3 4 13 6 8 12 9 8 10 12 12 16 16 14 14 13 13 15 16 17 2 8 20 16 14 11 4 3 4 6 9 15 12 11 10 11 12 15 22 21 21
28 28 29 20 8 4 11 16 7 5 6 8 7 12 17 14 10 12 12 15 15 15 15 12 14 17 20 23 28 25 28 25 18 5 24 10 7 12 8 16 11 10 10 10 11 9 13 9 11
22 2 1 15 13 11 20 17 12 9 6 20 5 13 24 20 17 17 10 14 13 15 15 14 16 20 22 24 27 27 21 16 17 19 27 9 4 10 9 16 22 16 18 16 16 10 8 10 11
10 26 25 27 30 32 23 25 9 5 4 10 10 16 17 24 20 21 16 16 14 15 15 15 17 21 22 24 24 26 26 25 25 14 22 21 5 4 10 18 19 22 19 17 16 10 12 19 21
28 21 28 15 23 29 26 14 19 10 4 6 9 13 20 27 23 25 23 18 16 16 14 16 17 20 23 23 22 22 24 26 12 3 22 27 21 23 8 20 22 18 19 18 16 14 11 18 20
24 19 33 22 28 29 27 22 14 9 1 8 11 18 22 26 26 24 28 20 16 15 15 16 17 19 20 22 22 21 22 21 21 16 24 26 16 14 21 8 3 19 18 18 18 17 14 14 13
27 28 26 30 24 8 17 26 1 4 12 18 12 15 23 24 25 23 25 25 19 17 18 17 17 19 19 19 21 21 15 9 10 7 8 13 9 10 20 11 5 5 10 9 20 15 18 17 16
15 15 10 26 30 34 24 20 23 8 10 16 13 15 20 25 24 24 22 21 21 21 19 17 17 17 19 18 20 23 23 12 12 22 3 10 16 9 14 15 3 10 11 11 8 13 21 20 17
6 12 32 35 36 35 31 26 18 6 10 12 9 14 18 21 20 23 22 19 21 21 19 20 16 14 17 15 15 22 23 24 24 21 4 22 15 12 11 3 6 16 14 10 9 9 19 22 13
3 14 25 21 28 34 30 24 8 10 12 14 15 17 13 13 16 21 24 20 16 19 18 15 15 13 14 13 12 15 21 21 24 24 10 15 10 12 8 5 4 16 17 15 14 13 20 22 18
13 11 24 30 27 29 31 26 11 8 9 10 11 7 4 6 16 19 20 16 15 15 16 13 11 9 11 11 10 10 17 20 22 23 24 20 4 10 9 10 8 15 11 18 17 13 18 24 22
24 8 6 19 32 32 33 30 15 10 11 10 9 10 9 16 5 17 16 18 16 14 15 12 9 10 11 9 9 9 10 15 19 19 17 17 15 8 3 6 16 21 21 23 21 20 20 25 25
Wind_Direction
204 197 180 202 337 343 7 321 219 88 18 38 39 54 59 74 89 74 81 99 97 99 94 94 99 93 90 87 54 129 94 79 76 78 86 89 94 101 96 89 99 102 106 108 111 115 125 108 72
214 214 175 273 320 340 17 128 169 122 50 54 55 51 38 54 56 83 78 99 100 97 90 100 98 91 86 88 101 110 82 78 87 95 95 101 97 93 97 95 99 98 96 96 104 106 109 83 87
208 202 307 322 347 350 345 295 212 238 16 60 53 26 43 71 76 89 104 99 95 94 90 92 89 89 80 72 71 76 69 73 84 102 105 104 95 84 89 92 94 99 91 92 94 96 95 81 89
220 321 353 336 332 27 60 72 97 26 337 46 52 33 54 76 70 93 106 105 97 93 94 93 86 78 75 64 64 68 73 80 94 106 112 107 93 85 75 80 90 93 98 100 103 100 98 80 77
222 339 333 319 338 127 76 57 33 342 356 42 46 48 58 54 86 103 113 110 103 98 98 95 91 84 75 67 72 55 75 87 101 108 103 94 90 71 65 70 86 99 95 101 105 109 104 96 98
341 348 329 328 331 11 10 13 26 358 343 46 53 48 55 80 85 91 99 98 103 100 96 93 88 81 74 75 70 60 82 72 96 105 98 91 86 71 50 73 102 97 102 109 121 121 109 114 122
312 343 329 323 347 355 14 37 37 24 357 28 60 30 65 80 89 94 88 96 99 101 101 99 93 81 73 61 63 78 72 51 102 102 105 100 88 106 86 120 84 82 96 119 131 131 125 125 139
359 348 337 322 345 344 1 41 27 14 7 27 58 30 60 84 67 81 79 82 90 102 106 98 107 95 88 85 73 80 48 82 118 108 109 100 117 85 92 154 72 95 98 134 135 131 134 141 155
332 332 343 334 336 349 340 356 17 11 359 14 19 57 79 83 84 80 86 84 109 104 102 110 108 111 108 93 82 69 86 112 123 116 95 89 92 231 225 223 156 126 157 145 142 130 142 149 166
353 323 320 350 342 349 357 342 356 349 350 24 52 60 75 89 96 102 100 98 104 102 108 110 112 118 109 92 88 66 83 109 114 109 80 198 307 236 230 227 172 166 158 151 148 142 163 167 169
326 27 46 360 9 8 13 351 345 332 336 10 75 68 84 98 102 108 117 112 117 124 109 106 95 119 115 102 104 86 110 118 123 108 89 257 288 238 238 233 196 186 166 160 161 145 154 191 198
16 115 87 323 13 16 15 23 346 338 356 44 142 117 97 103 111 111 119 112 100 110 99 90 105 125 119 104 123 119 130 110 103 320 355 265 278 282 279 224 190 222 186 186 187 173 157 117 147
2 6 357 251 21 30 30 31 24 23 81 112 156 154 110 110 122 110 108 99 97 104 99 99 106 121 132 145 141 146 142 134 125 6 278 269 273 279 285 251 220 203 197 182 199 237 71 163 158
353 1 25 56 32 26 38 40 26 65 146 141 130 129 119 98 121 107 109 115 111 100 97 78 80 103 134 131 143 145 128 125 134 303 319 279 247 290 350 75 190 202 192 173 145 203 165 128 144
26 331 322 286 359 360 57 48 59 88 126 141 131 119 117 103 106 119 127 116 109 90 93 84 63 79 102 118 141 137 164 140 196 136 128 336 255 298 320 191 171 206 210 190 133 161 169 185 186
325 342 340 204 224 34 53 23 67 107 118 146 174 103 90 118 83 105 119 120 112 98 104 78 65 68 88 93 121 174 170 197 180 154 109 298 256 322 57 202 219 233 208 215 149 125 193 178 176
356 338 360 21 115 31 78 7 74 105 105 124 119 119 132 127 101 103 113 108 103 112 98 81 73 75 83 92 69 245 212 220 218 244 72 133 347 17 353 212 220 236 198 238 159 176 151 148 164
109 326 3 2 81 105 94 79 25 103 110 114 145 123 132 123 125 119 111 110 99 97 86 84 76 77 86 97 310 238 240 253 268 300 300 22 345 23 45 144 242 261 205 182 163 146 126 135 167
251 355 311 35 98 71 42 33 51 42 342 123 116 146 147 147 127 120 108 113 106 94 95 85 73 91 95 111 291 254 222 240 249 251 314 349 3 27 340 258 286 298 280 261 231 191 119 135 149
267 315 285 322 80 50 8 349 12 56 54 13 360 155 163 160 136 134 119 121 114 108 106 85 86 103 115 128 171 191 171 170 131 112 164 259 284 84 357 22 228 281 259 253 230 251 193 191 279
239 218 68 222 357 8 342 337 355 15 60 2 167 172 184 167 162 152 132 129 121 119 115 101 104 118 124 136 158 184 212 237 235 236 200 182 21 86 52 71 82 173 172 176 193 232 245 340 338
213 253 274 311 303 291 338 314 4 7 55 19 303 175 169 179 166 165 154 145 135 128 116 111 112 126 132 139 136 158 182 171 184 255 220 166 71 279 91 113 116 139 143 158 177 295 347 59 52
245 326 259 348 333 278 265 347 340 350 25 58 151 165 176 179 167 170 165 153 144 135 124 121 121 130 139 139 138 135 148 188 100 21 153 187 144 223 91 149 157 132 152 161 174 262 317 62 115
313 321 263 301 309 273 309 340 354 2 14 90 120 174 184 179 166 164 167 160 148 142 131 127 130 135 141 147 146 141 141 143 226 263 167 179 134 131 244 299 22 251 260 250 215 217 280 280 219
308 298 302 293 307 240 336 326 61 128 144 161 138 152 170 174 166 160 162 162 149 147 143 137 136 138 143 144 151 149 129 89 101 328 83 128 116 291 192 287 325 52 106 134 251 297 238 191 214
331 308 308 296 290 284 323 330 327 62 124 157 163 165 160 177 170 166 161 158 152 151 150 143 140 138 145 145 153 164 169 129 125 167 59 296 284 133 164 162 330 306 313 319 355 324 232 222 185
331 200 265 263 279 274 292 325 351 117 45 92 111 171 166 164 159 162 160 154 154 154 154 149 142 134 142 144 143 162 166 172 180 165 321 248 303 323 329 99 306 287 299 319 334 341 287 227 164
309 329 288 297 290 273 284 319 7 19 25 28 23 19 305 161 155 153 161 160 155 152 153 148 144 136 137 140 143 146 162 166 181 186 267 269 320 319 356 49 52 298 290 299 305 315 288 273 199
315 312 291 285 290 291 285 300 342 351 337 358 19 41 12 36 153 157 159 158 155 155 155 153 148 138 134 131 141 141 151 164 173 186 196 179 41 330 325 320 327 306 320 295 296 311 300 283 291
302 283 292 295 278 282 280 288 330 339 339 356 23 77 88 165 107 155 153 156 154 156 159 162 161 154 144 139 139 140 137 149 168 173 169 172 169 139 56 335 305 293 297 287 290 295 298 287 285